2016-07-23 00:00:38 r, 18.20m,0000000005Hz,0000098768c,0000000.214s, 036.7C,00002195
2016-07-23 00:10:38 r, 18.16m,0000000004Hz,0000094595c,0000000.205s, 036.7C,00002195
2016-07-23 00:20:38 r, 18.22m,0000000004Hz,0000100738c,0000000.219s, 036.7C,00002195
2016-07-23 00:30:38 r, 18.08m,0000000005Hz,0000088214c,0000000.191s, 036.4C,00002195
2016-07-23 00:40:38 r, 17.74m,0000000008Hz,0000064322c,0000000.140s, 036.4C,00002195
2016-07-23 00:50:38 r, 16.48m,0000000023Hz,0000020277c,0000000.044s, 036.4C,00002195
2016-07-23 01:00:38 r, 17.01m,0000000014Hz,0000033048c,0000000.072s, 036.4C,00002195
2016-07-23 01:10:38 r, 17.03m,0000000014Hz,0000033870c,0000000.074s, 036.0C,00002195
2016-07-23 01:20:38 r, 16.77m,0000000017Hz,0000026465c,0000000.057s, 036.4C,00002195
2016-07-23 01:30:38 r, 16.95m,0000000015Hz,0000031122c,0000000.068s, 036.4C,00002195
2016-07-23 01:40:38 r, 16.79m,0000000017Hz,0000026910c,0000000.058s, 036.4C,00002195
2016-07-23 01:50:38 r, 16.85m,0000000016Hz,0000028415c,0000000.062s, 036.4C,00002195
2016-07-23 02:00:38 r, 16.96m,0000000015Hz,0000031431c,0000000.068s, 036.4C,00002195
2016-07-23 02:10:38 r, 16.97m,0000000015Hz,0000032028c,0000000.070s, 036.0C,00002195
2016-07-23 02:20:38 r, 16.92m,0000000015Hz,0000030599c,0000000.066s, 036.0C,00002195
2016-07-23 02:30:38 r, 17.21m,0000000011Hz,0000039992c,0000000.087s, 035.7C,00002195
2016-07-23 02:40:38 r, 17.53m,0000000009Hz,0000053545c,0000000.116s, 035.7C,00002195
2016-07-23 02:50:38 r, 17.06m,0000000013Hz,0000034562c,0000000.075s, 035.4C,00002195
2016-07-23 03:00:39 r, 16.89m,0000000016Hz,0000029653c,0000000.064s, 035.4C,00002195
2016-07-23 03:10:38 r, 16.72m,0000000018Hz,0000025253c,0000000.055s, 035.1C,00002195
2016-07-23 03:20:39 r, 16.86m,0000000016Hz,0000028795c,0000000.062s, 035.1C,00002195
2016-07-23 03:30:40 r, 17.05m,0000000014Hz,0000034366c,0000000.075s, 035.1C,00002195
2016-07-23 03:40:38 r, 16.91m,0000000015Hz,0000030341c,0000000.066s, 034.8C,00002195
2016-07-23 03:50:38 r, 16.76m,0000000018Hz,0000026458c,0000000.057s, 034.8C,00002195
2016-07-23 04:00:38 r, 16.89m,0000000016Hz,0000029690c,0000000.064s, 034.8C,00002195
2016-07-23 04:10:38 r, 17.03m,0000000014Hz,0000033996c,0000000.074s, 034.8C,00002195
2016-07-23 04:20:39 r, 17.11m,0000000012Hz,0000036567c,0000000.079s, 034.4C,00002195
2016-07-23 04:30:38 r, 16.87m,0000000016Hz,0000029235c,0000000.063s, 034.8C,00002195
2016-07-23 04:40:39 r, 16.10m,0000000032Hz,0000014288c,0000000.031s, 034.8C,00002195
2016-07-23 04:50:38 r, 15.30m,0000000066Hz,0000006906c,0000000.015s, 034.4C,00002195
2016-07-23 05:00:39 r, 13.86m,0000000255Hz,0000000000c,0000000.000s, 034.4C,00002195
2016-07-23 05:10:38 r, 12.45m,0000000928Hz,0000000000c,0000000.000s, 034.4C,00002195
2016-07-23 05:20:38 r, 10.90m,0000003872Hz,0000000000c,0000000.000s, 034.4C,00002195
2016-07-23 05:30:38 r, 09.37m,0000015935Hz,0000000000c,0000000.000s, 034.4C,00002195
2016-07-23 05:40:38 r, 08.19m,0000047235Hz,0000000000c,0000000.000s, 034.4C,00002195
2016-07-23 05:50:38 r, 07.62m,0000079630Hz,0000000000c,0000000.000s, 034.8C,00002195
2016-07-23 06:00:38 r, 06.90m,0000154828Hz,0000000000c,0000000.000s, 034.4C,00002195
2016-07-23 06:10:38 r, 06.16m,0000306504Hz,0000000000c,0000000.000s, 034.8C,00002195
2016-07-23 06:20:38 r, 00.00m,0000548572Hz,0000000000c,0000000.000s, 034.8C,00002195
2016-07-23 06:30:39 r, 00.00m,0000564391Hz,0000000000c,0000000.000s, 034.8C,00002195
2016-07-23 06:40:38 r, 00.00m,0000564533Hz,0000000000c,0000000.000s, 035.1C,00002195
2016-07-23 06:50:38 r, 00.00m,0000564508Hz,0000000000c,0000000.000s, 035.1C,00002195
2016-07-23 07:00:38 r, 00.00m,0000564474Hz,0000000000c,0000000.000s, 035.1C,00002195
2016-07-23 07:10:38 r, 00.00m,0000564512Hz,0000000000c,0000000.000s, 035.1C,00002195
2016-07-23 07:20:38 r, 00.00m,0000564497Hz,0000000000c,0000000.000s, 035.4C,00002195
2016-07-23 07:30:38 r, 00.00m,0000564568Hz,0000000000c,0000000.000s, 035.7C,00002195
2016-07-23 07:40:38 r, 00.00m,0000564579Hz,0000000000c,0000000.000s, 036.0C,00002195
2016-07-23 07:50:38 r, 00.00m,0000564635Hz,0000000000c,0000000.000s, 036.7C,00002195
2016-07-23 08:00:38 r, 00.00m,0000564673Hz,0000000000c,0000000.000s, 036.4C,00002195
2016-07-23 08:10:38 r, 00.00m,0000564684Hz,0000000000c,0000000.000s, 036.4C,00002195
2016-07-23 08:20:39 r, 00.00m,0000564643Hz,0000000000c,0000000.000s, 036.4C,00002195
2016-07-23 08:30:38 r, 00.00m,0000564612Hz,0000000000c,0000000.000s, 036.4C,00002195
2016-07-23 08:40:38 r, 00.00m,0000564646Hz,0000000000c,0000000.000s, 036.0C,00002195
2016-07-23 08:50:38 r, 00.00m,0000564632Hz,0000000000c,0000000.000s, 036.0C,00002195
2016-07-23 09:00:38 r, 00.00m,0000564634Hz,0000000000c,0000000.000s, 035.7C,00002195
2016-07-23 09:10:38 r, 00.00m,0000564573Hz,0000000000c,0000000.000s, 035.4C,00002195
2016-07-23 09:20:38 r, 00.00m,0000564562Hz,0000000000c,0000000.000s, 034.8C,00002195
2016-07-23 09:30:38 r, 00.00m,0000564542Hz,0000000000c,0000000.000s, 034.8C,00002195
2016-07-23 09:40:38 r, 00.00m,0000564643Hz,0000000000c,0000000.000s, 034.4C,00002195
2016-07-23 09:50:39 r, 00.00m,0000564586Hz,0000000000c,0000000.000s, 034.4C,00002195
2016-07-23 10:00:40 r, 00.00m,0000564556Hz,0000000000c,0000000.000s, 034.1C,00002195
2016-07-23 10:10:38 r, 00.00m,0000564486Hz,0000000000c,0000000.000s, 033.5C,00002195
2016-07-23 10:20:39 r, 00.00m,0000564483Hz,0000000000c,0000000.000s, 033.1C,00002195
2016-07-23 10:30:39 r, 00.00m,0000564457Hz,0000000000c,0000000.000s, 033.1C,00002195
2016-07-23 10:40:39 r, 00.00m,0000564492Hz,0000000000c,0000000.000s, 033.1C,00002195
2016-07-23 10:50:39 r, 00.00m,0000564513Hz,0000000000c,0000000.000s, 033.1C,00002195
2016-07-23 11:00:39 r, 00.00m,0000564535Hz,0000000000c,0000000.000s, 033.1C,00002195
2016-07-23 11:10:39 r, 00.00m,0000564509Hz,0000000000c,0000000.000s, 033.5C,00002195
2016-07-23 11:20:39 r, 00.00m,0000564609Hz,0000000000c,0000000.000s, 034.1C,00002195
2016-07-23 11:30:39 r, 00.00m,0000564581Hz,0000000000c,0000000.000s, 034.4C,00002195
2016-07-23 11:40:39 r, 00.00m,0000564656Hz,0000000000c,0000000.000s, 034.1C,00002195
2016-07-23 11:50:39 r, 00.00m,0000564578Hz,0000000000c,0000000.000s, 034.4C,00002195
2016-07-23 12:00:39 r, 00.00m,0000564676Hz,0000000000c,0000000.000s, 034.4C,00002195
2016-07-23 12:10:39 r, 00.00m,0000564704Hz,0000000000c,0000000.000s, 035.1C,00002195
2016-07-23 12:20:40 r, 00.00m,0000564817Hz,0000000000c,0000000.000s, 036.0C,00002195
2016-07-23 12:30:39 r, 00.00m,0000564942Hz,0000000000c,0000000.000s, 037.0C,00002195
2016-07-23 12:40:39 r, 00.00m,0000564954Hz,0000000000c,0000000.000s, 037.0C,00002195
2016-07-23 12:50:39 r, 00.00m,0000564897Hz,0000000000c,0000000.000s, 037.3C,00002195
2016-07-23 13:00:39 r, 00.00m,0000564938Hz,0000000000c,0000000.000s, 037.3C,00002195
2016-07-23 13:10:39 r, 00.00m,0000564897Hz,0000000000c,0000000.000s, 037.0C,00002195
2016-07-23 13:20:40 r, 00.00m,0000564894Hz,0000000000c,0000000.000s, 037.0C,00002195
2016-07-23 13:30:39 r, 00.00m,0000564766Hz,0000000000c,0000000.000s, 036.7C,00002195
2016-07-23 13:40:39 r, 00.00m,0000564875Hz,0000000000c,0000000.000s, 037.0C,00002195
2016-07-23 13:50:39 r, 00.00m,0000564949Hz,0000000000c,0000000.000s, 037.7C,00002195
2016-07-23 14:00:39 r, 00.00m,0000565037Hz,0000000000c,0000000.000s, 038.3C,00002195
2016-07-23 14:10:39 r, 00.00m,0000565075Hz,0000000000c,0000000.000s, 039.0C,00002195
2016-07-23 14:20:39 r, 00.00m,0000565205Hz,0000000000c,0000000.000s, 039.9C,00002195
2016-07-23 14:30:39 r, 00.00m,0000565208Hz,0000000000c,0000000.000s, 040.6C,00002195
2016-07-23 14:40:39 r, 00.00m,0000565368Hz,0000000000c,0000000.000s, 041.2C,00002195
2016-07-23 14:50:39 r, 00.00m,0000565358Hz,0000000000c,0000000.000s, 042.2C,00002195
2016-07-23 15:00:39 r, 00.00m,0000565538Hz,0000000000c,0000000.000s, 043.1C,00002195
2016-07-23 15:10:39 r, 00.00m,0000565586Hz,0000000000c,0000000.000s, 044.4C,00002195
2016-07-23 15:20:39 r, 00.00m,0000565692Hz,0000000000c,0000000.000s, 045.1C,00002195
2016-07-23 15:30:39 r, 00.00m,0000565861Hz,0000000000c,0000000.000s, 047.0C,00002195
2016-07-23 15:40:39 r, 00.00m,0000566156Hz,0000000000c,0000000.000s, 050.9C,00002195
2016-07-23 15:50:39 r, 00.00m,0000566207Hz,0000000000c,0000000.000s, 052.5C,00002195
2016-07-23 16:00:39 r, 00.00m,0000566135Hz,0000000000c,0000000.000s, 052.5C,00002195
2016-07-23 16:10:39 r, 00.00m,0000566135Hz,0000000000c,0000000.000s, 052.5C,00002195
2016-07-23 16:20:39 r, 00.00m,0000566145Hz,0000000000c,0000000.000s, 052.5C,00002195
2016-07-23 16:30:39 r, 00.00m,0000566067Hz,0000000000c,0000000.000s, 051.5C,00002195
2016-07-23 16:40:39 r, 00.00m,0000565945Hz,0000000000c,0000000.000s, 051.2C,00002195
2016-07-23 16:50:39 r, 00.00m,0000565677Hz,0000000000c,0000000.000s, 048.9C,00002195
2016-07-23 17:00:39 r, 00.00m,0000565628Hz,0000000000c,0000000.000s, 047.3C,00002195
2016-07-23 17:10:39 r, 00.00m,0000565836Hz,0000000000c,0000000.000s, 048.6C,00002195
2016-07-23 17:20:39 r, 00.00m,0000565948Hz,0000000000c,0000000.000s, 049.6C,00002195
2016-07-23 17:30:39 r, 00.00m,0000565670Hz,0000000000c,0000000.000s, 047.3C,00002195
2016-07-23 17:40:39 r, 00.00m,0000565630Hz,0000000000c,0000000.000s, 046.7C,00002195
2016-07-23 17:50:39 r, 00.00m,0000565557Hz,0000000000c,0000000.000s, 045.7C,00002195
2016-07-23 18:00:39 r, 00.00m,0000565420Hz,0000000000c,0000000.000s, 044.1C,00002195
2016-07-23 18:10:39 r, 00.00m,0000565323Hz,0000000000c,0000000.000s, 043.1C,00002195
2016-07-23 18:20:39 r, 00.00m,0000565334Hz,0000000000c,0000000.000s, 042.8C,00002195
2016-07-23 18:30:39 r, 00.00m,0000565483Hz,0000000000c,0000000.000s, 043.5C,00002195
2016-07-23 18:40:39 r, 00.00m,0000565405Hz,0000000000c,0000000.000s, 043.1C,00002195
2016-07-23 18:50:39 r, 00.00m,0000565364Hz,0000000000c,0000000.000s, 043.1C,00002195
2016-07-23 19:00:39 r, 00.00m,0000565337Hz,0000000000c,0000000.000s, 043.1C,00002195
2016-07-23 19:10:39 r, 00.00m,0000565356Hz,0000000000c,0000000.000s, 043.8C,00002195
2016-07-23 19:20:39 r, 00.00m,0000565165Hz,0000000000c,0000000.000s, 041.9C,00002195
2016-07-23 19:30:39 r, 00.00m,0000565070Hz,0000000000c,0000000.000s, 040.6C,00002195
2016-07-23 19:40:40 r, 00.00m,0000503213Hz,0000000000c,0000000.000s, 039.6C,00002195
2016-07-23 19:50:39 r, 06.66m,0000192704Hz,0000000000c,0000000.000s, 039.0C,00002195
2016-07-23 20:00:39 r, 06.59m,0000205766Hz,0000000000c,0000000.000s, 038.6C,00002195
2016-07-23 20:10:39 r, 06.02m,0000348200Hz,0000000000c,0000000.000s, 038.3C,00002195
2016-07-23 20:20:39 r, 07.14m,0000124762Hz,0000000000c,0000000.000s, 038.3C,00002195
2016-07-23 20:30:40 r, 06.47m,0000230972Hz,0000000000c,0000000.000s, 037.7C,00002195
2016-07-23 20:40:39 r, 06.02m,0000347684Hz,0000000000c,0000000.000s, 037.3C,00002195
2016-07-23 20:50:39 r, 06.23m,0000287917Hz,0000000000c,0000000.000s, 037.3C,00002195
2016-07-23 21:00:39 r, 07.22m,0000115251Hz,0000000000c,0000000.000s, 037.0C,00002195
2016-07-23 21:10:39 r, 07.71m,0000073410Hz,0000000000c,0000000.000s, 036.7C,00002195
2016-07-23 21:20:39 r, 08.29m,0000043009Hz,0000000000c,0000000.000s, 036.4C,00002195
2016-07-23 21:30:41 r, 08.83m,0000026041Hz,0000000000c,0000000.000s, 036.7C,00002195
2016-07-23 21:40:39 r, 09.85m,0000010267Hz,0000000000c,0000000.000s, 036.7C,00002195
2016-07-23 21:50:39 r, 11.32m,0000002643Hz,0000000000c,0000000.000s, 036.4C,00002195
2016-07-23 22:00:39 r, 12.88m,0000000631Hz,0000000000c,0000000.000s, 036.7C,00002195
2016-07-23 22:10:39 r, 14.67m,0000000121Hz,0000003829c,0000000.008s, 036.4C,00002195
2016-07-23 22:20:39 r, 16.08m,0000000033Hz,0000014095c,0000000.031s, 036.4C,00002195
2016-07-23 22:30:39 r, 17.03m,0000000014Hz,0000033795c,0000000.073s, 036.0C,00002195
2016-07-23 22:40:39 r, 17.83m,0000000007Hz,0000070961c,0000000.154s, 035.7C,00002195
2016-07-23 22:50:39 r, 18.30m,0000000004Hz,0000108750c,0000000.236s, 035.7C,00002195
2016-07-23 23:00:39 r, 18.57m,0000000004Hz,0000139394c,0000000.303s, 035.4C,00002195
2016-07-23 23:10:39 r, 18.69m,0000000003Hz,0000156219c,0000000.339s, 035.4C,00002195
2016-07-23 23:20:39 r, 18.72m,0000000003Hz,0000160343c,0000000.348s, 035.4C,00002195
2016-07-23 23:30:39 r, 18.70m,0000000003Hz,0000158422c,0000000.344s, 035.4C,00002195
2016-07-23 23:40:39 r, 18.68m,0000000003Hz,0000155554c,0000000.338s, 035.4C,00002195
2016-07-23 23:50:39 r, 18.67m,0000000003Hz,0000152639c,0000000.331s, 035.4C,00002195
